Weather History for KMDT - September, 2013

Change the Weather History Date:

Monday, September 2, 2013

  Actual Average Record
Temperature  
Mean Temperature 80 °F 71 °F  
Max Temperature 88 °F 81 °F 102 °F (1953)
Min Temperature 71 °F 61 °F 45 °F (1949)
Degree Days  
Heating Degree Days 0 0  
Month to date heating degree days 0 0  
Since 1 July heating degree days 0 2  
Cooling Degree Days 15 6  
Month to date cooling degree days 30 13  
Year to date cooling degree days 982 909  
Growing Degree Days 29 (Base 50)    
Moisture  
Dew Point 68 °F    
Average Humidity 74    
Maximum Humidity 93    
Minimum Humidity 55    
Precipitation  
Precipitation T in 0.12 in 2.69 in (2006)
Month to date precipitation 0.01 0.23  
Year to date precipitation 24.28 27.17  
Sea Level Pressure  
Sea Level Pressure 29.75 in    
Wind  
Wind Speed 3 mph (WNW)    
Max Wind Speed 14 mph    
Max Gust Speed 18 mph    
Visibility 10 miles    
Events Rain    
T = Trace of Precipitation, MM = Missing Value Source: NWS Daily Summary

Daily Weather History Graph

Daily Weather History Graph

Search for Another Location

Airport or City:

Trip Planner

Search our weather history database for the weather conditions in past years. The results will help you decide how hot, cold, wet, or windy it might be!

Date:

Astronomy

Sep. 02, 2013 Rise Set
Actual Time 6:35 AM EDT 7:36 PM EDT
Civil Twilight 6:07 AM EDT 8:04 PM EDT
Nautical Twilight 5:34 AM EDT 8:37 PM EDT
Astronomical Twilight 5:00 AM EDT 9:11 PM EDT
Moon 3:50 AM EDT (9/2) 5:49 PM EDT (9/2)
Length of Visible Light 13h 56m
Length of Day
13h 00m
Waning Crescent, 8% of the Moon is Illuminated
Sep 2
Waning Crescent
Sep 5
New
Sep 12
First Quarter
Sep 19
Full
Sep 26
Last Quarter

Hourly Weather History & Observations

Time (EDT) Temp. Heat Index Dew Point Humidity Pressure Visibility Wind Dir Wind Speed Gust Speed Precip Events Conditions
12:56 AM 73.0 °F - 69.1 °F 87% 29.78 in 10.0 mi Calm Calm - 0.00 in   Scattered Clouds
1:56 AM 72.0 °F - 68.0 °F 87% 29.77 in 10.0 mi Calm Calm - N/A   Scattered Clouds
2:56 AM 72.0 °F - 69.1 °F 91% 29.77 in 9.0 mi Calm Calm - N/A   Scattered Clouds
3:56 AM 71.1 °F - 68.0 °F 90% 29.77 in 10.0 mi Calm Calm - N/A   Mostly Cloudy
4:56 AM 71.1 °F - 68.0 °F 90% 29.77 in 10.0 mi NNW 5.8 mph - N/A   Mostly Cloudy
5:28 AM 71.6 °F - 68.0 °F 88% 29.78 in 9.0 mi Calm Calm - N/A   Mostly Cloudy
5:56 AM 71.1 °F - 68.0 °F 90% 29.77 in 9.0 mi NW 5.8 mph - N/A   Overcast
6:56 AM 71.1 °F - 68.0 °F 90% 29.77 in 9.0 mi NW 4.6 mph - N/A   Overcast
7:56 AM 72.0 °F - 68.0 °F 87% 29.78 in 9.0 mi WNW 4.6 mph - N/A   Scattered Clouds
8:56 AM 73.0 °F - 68.0 °F 84% 29.78 in 10.0 mi Calm Calm - N/A   Clear
9:56 AM 75.9 °F - 68.0 °F 76% 29.79 in 10.0 mi NW 4.6 mph - N/A   Overcast
10:56 AM 79.0 °F - 68.0 °F 69% 29.79 in 10.0 mi WNW 5.8 mph - N/A   Overcast
11:56 AM 80.1 °F 82.9 °F 69.1 °F 69% 29.79 in 10.0 mi West 3.5 mph - N/A   Mostly Cloudy
12:56 PM 82.9 °F 86.5 °F 69.1 °F 63% 29.77 in 10.0 mi WNW 3.5 mph - N/A   Scattered Clouds
1:56 PM 84.9 °F 88.8 °F 69.1 °F 59% 29.75 in 10.0 mi Calm Calm - N/A   Scattered Clouds
2:56 PM 84.9 °F 88.8 °F 69.1 °F 59% 29.73 in 10.0 mi Calm Calm - N/A   Scattered Clouds
3:56 PM 84.9 °F 89.4 °F 70.0 °F 61% 29.71 in 10.0 mi SSE 4.6 mph - N/A   Mostly Cloudy
4:56 PM 87.1 °F 92.0 °F 70.0 °F 57% 29.70 in 10.0 mi SW 6.9 mph - N/A   Scattered Clouds
5:56 PM 84.0 °F 88.4 °F 70.0 °F 63% 29.71 in 10.0 mi WSW 4.6 mph - N/A   Scattered Clouds
6:56 PM 82.0 °F 85.9 °F 70.0 °F 67% 29.71 in 9.0 mi WSW 6.9 mph 18.4 mph 0.00 in Rain Light Rain
7:56 PM 78.1 °F - 61.0 °F 56% 29.72 in 10.0 mi NE 3.5 mph - 0.00 in   Scattered Clouds
8:56 PM 75.0 °F - 66.0 °F 73% 29.72 in 10.0 mi SSE 3.5 mph - N/A   Scattered Clouds
9:56 PM 75.0 °F - 66.9 °F 76% 29.73 in 10.0 mi South 5.8 mph - N/A   Partly Cloudy
10:56 PM 75.0 °F - 68.0 °F 79% 29.74 in 10.0 mi Calm Calm - N/A   Partly Cloudy
11:56 PM 73.0 °F - 66.9 °F 81% 29.74 in 10.0 mi North 4.6 mph - N/A   Partly Cloudy